Location: C�mpuri de-Sus
(45.9500°N, 22.5500°E)
Time: 13:38:56
(UTC+00:00)

Meteor 1-4 Rocket - Pass Details

Date: 24 October 2021
Orbit: 447 x 496 km, 81.2° (Epoch: 06 December)

Event Time Altitude Azimuth Distance (km) Brightness Sun altitude
Rises 16:55:54 0° 187° (S) 2,466 6.3 -15.9°
Reaches altitude 10° 16:57:58 10° 186° (S) 1,591 5.2 -16.2°
Maximum altitude 17:01:26 80° 101° (E) 465 2.3 -16.8°
Drops below altitude 10° 17:04:54 10° 13° (NNE) 1,588 5.0 -17.4°
Sets 17:06:58 0° 12° (NNE) 2,463 6.0 -17.8°
